www.pogodaiklimat.ru

Погода и климат >> Архив погоды >> Беларусь >> Ганцевичи


ПОГОДА в Ганцевичах

  • Прогноз погоды в Ганцевичах
  • Монитор погоды в Ганцевичах
  • Климат города

АРХИВ ПОГОДЫ в Ганцевичах

Время (UTC), дата Ветер
(напр.,м/с)
 
Видим.   Явления Облачность Т
(С)
Тd
(С)
f
(%)
Тe
(С)
Тes
(С)
Комфортность P
(гПа)
Po
(гПа)
Тmin
(С)
Tmax
(С)
R
(мм)
R24
(мм)
S
(см)
09 8.11 Ю 2 10 км 3/0
[Ci fib]
+5.3 +3.0 85 +3 +5 1024.7 1004.9
12 8.11 ЮВ 2 10 км 3/0
[Ci fib]
+7.8 +4.4 79 +6 +7 1023.7 1004.1
15 8.11 штиль 0 6000 м дымка 1/0
[Ci fib]
+4.9 +3.6 91 +4 +4 1023.5 1003.7
18 8.11 штиль 0 2300 м дымка ясно +0.1 -0.1 99 -1 -1 1023.9 1003.7 +9.3
21 8.11 штиль 0 200 м н/о -1.3 -1.3 100 -3 -3 1024.0 1004.0
00 9.11 штиль 0 200 м н/о -2.1 -2.1 100 -4 -4 1024.0 1003.9
03 9.11 штиль 0 300 м н/о -2.5 -2.6 99 -4 -4 1024.0 1003.9 -2.8
06 9.11 штиль 0 1300 м в посл. час туман ясно -3.3 -3.5 99 -5 -5 1024.0 1003.6 -3.9
09 9.11 штиль 0 100 м туман ?/? -0.2 -0.2 100 -2 -2 1024.1 1003.9
12 9.11 штиль 0 400 м туман ?/? +2.9 +2.9 100 +2 +2 1023.2 1003.3
15 9.11 ЮВ 1 200 м туман ?/? +1.4 +1.4 100 -1 -1 1023.3 1003.3
18 9.11 штиль 0 200 м туман ?/? +1.6 +1.6 100 0 0 1023.1 1003.1 +3.2
21 9.11 штиль 0 400 м н/о +2.1 +2.1 100 +1 +1 1023.0 1003.3
00 10.11 штиль 0 3600 м н/о +2.0 +2.0 100 +1 +1 1023.0 1003.3
03 10.11 штиль 0 800 м н/о +1.7 +1.7 100 0 0 1022.0 1002.3 +1.6
06 10.11 ЮВ 2 200 м туман ?/? +1.1 +1.1 100 -3 -3 1021.6 1001.6 +1.0
09 10.11 В 1 600 м туман ?/? +1.5 +1.5 100 -1 -1 1022.2 1002.2
12 10.11 В 2 600 м туман ?/? +2.3 +2.3 100 -1 -1 1021.6 1001.7
15 10.11 В 3 400 м туман ?/? +1.9 +1.9 100 -3 -3 1022.0 1002.0
18 10.11 В 3 500 м туман ?/? +1.7 +1.7 100 -3 -3 1022.5 1002.5 +2.6
21 10.11 В 2 500 м н/о +1.7 +1.7 100 -2 -2 1023.0 1003.2
00 11.11 ЮВ 4 400 м н/о +1.6 +1.6 100 -4 -4 1024.0 1004.2
03 11.11 В 3 500 м н/о +1.6 +1.6 100 -3 -3 1024.0 1004.2 +1.6
06 11.11 ЮВ 4 600 м туман ?/? +1.4 +1.4 100 -4 -4 1025.1 1005.0 +1.4
09 11.11 ЮВ 4 800 м туман ?/? +1.6 +1.6 100 -4 -4 1026.5 1006.4
12 11.11 ЮВ 3 1600 м дымка {туман} 10/10 120 м
[St]
+2.0 +2.0 100 -3 -3 1026.6 1006.5
15 11.11 ЮВ 4 3800 м дымка 9/9 210 м
[Sc]
+2.2 +2.2 100 -3 -3 1027.2 1007.1
18 11.11 ЮВ 6-11
{11}
3800 м дымка 9/9 210 м
[Sc]
+2.0 +1.7 98 -4 -4 1028.1 1008.0 +2.4
21 11.11 ЮВ 5
{11}
6000 м н/о +1.6 +1.2 97 -4 -4 1029.0 1009.1
00 12.11 ЮВ 5 4900 м н/о +1.0 +0.6 97 -5 -5 1030.0 1010.0
03 12.11 ЮВ 4
{10}
10 км н/о +1.6 +0.1 90 -4 -4 1030.0 1010.1 +0.9
06 12.11 ЮВ 4 6000 м дымка 9/9 400 м
[Sc]
+2.5 +0.5 87 -2 -2 1030.9 1010.8 +0.9
09 12.11 ЮВ 4 6000 м дымка 9/9 270 м
[Sc]
+3.0 +1.5 90 -2 -2 1031.6 1011.5
12 12.11 ЮВ 4
{10}
5000 м дымка 9/9 240 м
[Sc]
+3.0 +2.1 94 -2 -2 1031.5 1011.4
15 12.11 ЮВ 4 6000 м дымка 9/9 300 м
[Sc]
+3.5 +1.8 89 -1 -1 1032.0 1011.9
18 12.11 Ю 4 6000 м дымка 9/9 240 м
[Sc]
+3.4 +2.2 92 -1 -1 1032.6 1012.5 +3.6
21 12.11 Ю 3 4400 м н/о +3.1 +2.7 97 -1 -1 1033.0 1013.1
00 13.11 ЮВ 4 4000 м н/о +2.8 +2.4 97 -2 -2 1032.0 1012.1
03 13.11 ЮВ 4 7000 м н/о +2.4 +1.2 92 -3 -3 1032.0 1012.1 +2.4
06 13.11 Ю 3 6000 м дымка 9/9 300 м
[Sc]
+2.4 +0.8 89 -2 -2 1031.2 1011.1 +2.3
09 13.11 Ю 4 6000 м дымка 9/9 300 м
[Sc]
+3.3 +1.4 87 -1 -1 1030.7 1010.7
12 13.11 Ю 3
{10}
6000 м дымка 9/9 360 м
[Sc]
+4.1 +1.8 85 0 +1 1029.3 1009.3
15 13.11 Ю 4
{10}
6000 м дымка 9/9 400 м
[Sc]
+4.0 +1.7 85 -0 -0 1027.6 1007.7
18 13.11 Ю 4
{11}
10 км 9/9 420 м
[Sc]
+3.6 +0.8 82 -1 -1 1026.5 1006.6 +4.3
21 13.11 Ю 3
{10}
10 км н/о +3.2 +1.1 86 -1 -1 1024.0 1004.3
00 14.11 Ю 2 10 км н/о +2.5 +1.8 95 -1 -1 1022.0 1002.3
03 14.11 Ю 2 4900 м н/о +2.7 +2.6 99 -1 -1 1020.0 1000.4 +2.5
06 14.11 ЮЗ 2 3200 м 10 баллов +3.9 +3.9 100 +1 +1 1020.0 1000.5 +2.5 6
09 14.11 З 3 3500 м 10 баллов +7.6 +7.5 99 +5 +5 1020.0 1000.7
12 14.11 СЗ 3 4500 м 10 баллов +7.9 +7.1 95 +5 +5 1020.0 1000.7
15 14.11 СЗ 3 6000 м дымка 10 баллов +7.6 +7.0 96 +5 +5 1022.0 1002.7
18 14.11 СЗ 3 6000 м дымка 3 балла +6.6 +5.4 92 +3 +3 1023.0 1003.6 +8.5 4
21 14.11 СЗ 3 10 км н/о +5.7 +5.0 95 +2 +2 1025.0 1005.5
00 15.11 СЗ 3 10 км н/о +5.8 +5.1 95 +2 +2 1026.0 1006.5
03 15.11 СВ 2 10 км н/о +5.5 +4.3 92 +3 +3 1027.0 1007.4 +5.4

 

Местоположение метеостанции Ганцевичи (Брестская область, Беларусь): широта 52.75 долгота 26.44 высота над уровнем моря 157 м.

В архиве по умолчанию представлена погода в Ганцевичах за последнюю неделю. Архивные данные за месяц целиком и за предыдущие месяцы, начиная с января 2011 года, Вы можете получить, выбрав интересующий диапазон дат из раскрывающегося списка и нажав кнопку "Ввод!".


*Определитесь, кто Вы:
робот инопланетянин человек

Внимание! Время в таблицах - всемирное. Для получения местного времени необходимо прибавить поправку, которая в Ганцевичах равна 3 ч.

Смотрите также архив погоды в соседних городах и на ближайших метеорологических станциях:

Погода в Барановичах (Брестская область, Беларусь) (53 км)
Погода в Полесской (Брестская область, Беларусь) (53 км)
Погода в Ивацевичах (Брестская область, Беларусь) (73 км)
Погода в Пинске (Брестская область, Беларусь) (75 км)
Погода в Слуцке (Минская область, Беларусь) (81 км)
Погода в Столбцах (Минская область, Беларусь) (83 км)
Погода в Новогрудке (Гродненская область, Беларусь) (102 км)
Погода в Дрогичине (Брестская область, Беларусь) (109 км)
Погода в Житковичах (Гомельская область, Беларусь) (113 км)
Погода в Пружанах (Брестская область, Беларусь) (133 км)

Пояснения к столбцам:

Ветер - указаны скорость ветра в м/с - средняя за 10 мин, порывы в срок и между сроками (в фигурных скобках) и направление, откуда дует ветер: С - северный, СВ - северо-восточный, В - восточный, ЮВ - юго-восточный, Ю - южный, ЮЗ - юго-западный, З - западный, СЗ - северо-западный.
Видимость - горизонтальная дальность видимости в метрах или километрах. При видимости от 1 до 10 км при отсутствии осадков обычно наблюдается дымка, при ухудшении видимости до 1 км и менее - туман. В сухую погоду видимость может ухудшаться дымом, пылью или мглою.
Явления - указаны атмосферные явления, наблюдавшиеся в срок или в последний час перед сроком; фигурными скобками обозначены явления, наблюдавшиеся между сроками (за 1-3 часа до срока); квадратными скобками обозначены град или гололедные отложения с указанием их диаметра в мм.
Облачность - указаны через наклонную черту общая и нижняя облачность в баллах и высота нижней границы облаков в метрах; квадратными скобками обозначены формы облаков: Ci - перистые, Cs - перисто-слоистые, Cc - перисто-кучевые, Ac - высококучевые, As - высокослоистые, Sc - слоисто-кучевые, Ns - слоисто-дождевые, Cu - кучевые, Cb - кучево-дождевые. Подробнее классификацию облаков см. в Атласе облаков (PDF).
T - Температура воздуха - температура, измеренная на высоте 2 м над землей.
Td - Температура точки росы - температура, при понижении до которой содержащийся в воздухе водяной пар достигнет насыщения.
f - Относительная влажность воздуха - влажноcть воздуха, измеренная на высоте 2 м над землей.
Te - Эффективная температура - температура, которую ощущает одетый по сезону человек в тени. Характеристика душности погоды. При расчете учитывается влияние влажности воздуха и скорости ветра на теплоощущения человека.
Tes - Эффективная температура на солнце - температура, которую ощущает человек, с поправкой на солнечный нагрев. Характеристика знойности погоды. Зависит от высоты солнца над горизонтом, облачности и скорости ветра. Ночью, в пасмурную погоду, а также при ветре 12 м/с и более поправка равна нулю.
P - Атмосферное давление - приведенное к уровню моря атмосферное давление.
Po - Атмосферное давление - измеренное на уровне метеостанции атмосферное давление.
Tmin - Минимальная температура - минимум температуры воздуха на высоте 2 м над землей.
Tmax - Максимальная температура - максимум температуры воздуха на высоте 2 м над землей.
R - Количество осадков - Количество выпавших осадков за период времени, мм. При наведении курсора мыши на число - период времени, за который выпало указанное количество осадков.
R24 - Количество осадков - Количество выпавших осадков за 24 часа, мм.
S - Снежный покров - Высота снежного покрова, см. При наведении курсора мыши на число - состояние снежного покрова и степень покрытия местности в баллах.